sat.trackr.live / text

‹ back to catalog

STARLINK-3251

NORAD 49729 · 2021-115F

PAYLOAD ACTIVE UNKNOWN

§ Identity

Operator
Country
US
Launch date
2021-12-02
Launch site
AFETR
Launch vehicle
Mass (kg)
RCS (m²)

Purposes: comms

External: N2YO · Heavens-Above · Gunter

§ Orbital elements

Epoch: 2026-09-09T17:31:03.313344Z

Period
94.01 min
Inclination
53.1605°
Eccentricity
0.0001012
Mean motion
15.31697581 rev/d
Perigee alt
470.1 km
Apogee alt
471.4 km
Semi-major
6,848.9 km
B*
2.5511e-6
RAAN
41.9508°
Arg perigee
89.0113°
Mean anomaly
271.1004°
Rev number
26,332

§ Raw data

STARLINK-32511 49729U 21115F   26252.72989946 -.00000286  00000+0  25511-5 0  99972 49729  53.1605  41.9508 0001012  89.0113 271.1004 15.31697581263323

JSON: /api/v1/satellites/49729 · /tle

For live sub-satellite position, see the globe view (requires WebGL).

§ Visibility from observer

Set your observer location to see the next 7 days of passes ≥ 10°. The values pass through the URL so the page stays shareable.

No JS? Fill the form by hand. The geolocation button needs JavaScript.